Time,TemperatureF,DewpointF,PressureIn,WindDirection,WindDirectionDegrees,WindSpeedMPH,WindSpeedGustMPH,Humidity,HourlyPrecipIn,Conditions,Clouds,dailyrainin,SoftwareType,DateUTC
2013-08-04 00:00:00,56.5,37.0,29.74,WNW,289,0.0,0.0,48,0.00,CLR,,0.00,WeatherDisplay:10.37,2013-08-04 07:00:00,
2013-08-04 00:04:00,56.5,37.0,29.74,North,351,0.0,0.0,48,0.00,CLR,,0.00,WeatherDisplay:10.37,2013-08-04 07:04:00,
2013-08-04 00:10:00,56.5,37.0,29.74,NW,326,0.0,0.0,48,0.00,CLR,,0.00,WeatherDisplay:10.37,2013-08-04 07:10:00,
2013-08-04 00:15:00,56.5,37.0,29.74,WSW,252,0.0,0.0,48,0.00,CLR,,0.00,WeatherDisplay:10.37,2013-08-04 07:15:00,
2013-08-04 00:20:00,56.5,37.0,29.74,SSE,162,0.0,0.0,48,0.00,CLR,,0.00,WeatherDisplay:10.37,2013-08-04 07:20:00,
2013-08-04 00:25:00,56.5,37.0,29.74,SSE,164,0.0,0.0,48,0.00,CLR,,0.00,WeatherDisplay:10.37,2013-08-04 07:25:00,
2013-08-04 00:30:00,56.5,37.0,29.74,SSW,199,0.0,0.0,48,0.00,CLR,,0.00,WeatherDisplay:10.37,2013-08-04 07:30:00,
2013-08-04 00:35:00,56.3,36.8,29.74,West,259,0.0,0.0,48,0.00,CLR,,0.00,WeatherDisplay:10.37,2013-08-04 07:35:00,
2013-08-04 00:40:00,56.3,36.8,29.74,West,266,0.0,0.0,48,0.00,CLR,,0.00,WeatherDisplay:10.37,2013-08-04 07:40:00,
2013-08-04 00:45:00,56.5,37.0,29.74,West,271,0.0,0.0,48,0.00,CLR,,0.00,WeatherDisplay:10.37,2013-08-04 07:45:00,
2013-08-04 00:50:00,56.3,37.4,29.74,West,274,0.0,0.0,49,0.00,CLR,,0.00,WeatherDisplay:10.37,2013-08-04 07:50:00,
2013-08-04 00:55:00,56.3,37.4,29.74,West,267,0.0,0.0,49,0.00,CLR,,0.00,WeatherDisplay:10.37,2013-08-04 07:55:00,
2013-08-04 01:00:00,56.3,37.4,29.74,WSW,251,0.0,0.0,49,0.00,CLR,,0.00,WeatherDisplay:10.37,2013-08-04 08:00:00,
2013-08-04 01:05:00,56.3,37.4,29.74,WSW,237,0.0,0.0,49,0.00,CLR,,0.00,WeatherDisplay:10.37,2013-08-04 08:05:00,
2013-08-04 01:10:00,56.1,37.2,29.74,WSW,242,0.0,0.0,49,0.00,CLR,,0.00,WeatherDisplay:10.37,2013-08-04 08:10:00,
2013-08-04 01:15:00,56.3,37.4,29.74,West,263,0.0,0.0,49,0.00,CLR,,0.00,WeatherDisplay:10.37,2013-08-04 08:15:00,
2013-08-04 01:19:00,56.5,37.5,29.74,East,81,0.0,0.0,49,0.00,CLR,,0.00,WeatherDisplay:10.37,2013-08-04 08:19:00,
2013-08-04 01:30:00,56.5,37.5,29.74,WSW,242,0.0,0.0,49,0.00,CLR,,0.00,WeatherDisplay:10.37,2013-08-04 08:30:00,
2013-08-04 01:35:00,56.5,37.5,29.74,NW,313,0.0,0.0,49,0.00,CLR,,0.00,WeatherDisplay:10.37,2013-08-04 08:35:00,
2013-08-04 01:40:00,56.3,37.4,29.71,West,272,0.0,0.0,49,0.00,CLR,,0.00,WeatherDisplay:10.37,2013-08-04 08:40:00,
2013-08-04 01:45:00,56.3,37.4,29.71,WSW,254,0.0,0.0,49,0.00,CLR,,0.00,WeatherDisplay:10.37,2013-08-04 08:45:00,
2013-08-04 01:50:00,56.3,37.4,29.71,WSW,256,0.0,0.0,49,0.00,CLR,,0.00,WeatherDisplay:10.37,2013-08-04 08:50:00,
2013-08-04 01:55:00,56.3,37.4,29.74,SW,232,0.0,0.0,49,0.00,CLR,,0.00,WeatherDisplay:10.37,2013-08-04 08:55:00,
2013-08-04 01:59:00,56.3,37.4,29.74,SW,214,0.0,0.0,49,0.00,CLR,,0.00,WeatherDisplay:10.37,2013-08-04 08:59:00,
2013-08-04 02:05:00,56.3,37.4,29.74,WSW,242,0.0,0.0,49,0.00,CLR,,0.00,WeatherDisplay:10.37,2013-08-04 09:05:00,
2013-08-04 02:10:00,56.2,37.2,29.74,West,264,0.0,0.0,49,0.00,CLR,,0.00,WeatherDisplay:10.37,2013-08-04 09:10:00,
2013-08-04 02:15:00,56.3,37.4,29.74,SW,226,0.0,0.0,49,0.00,CLR,,0.00,WeatherDisplay:10.37,2013-08-04 09:15:00,
2013-08-04 02:20:00,56.1,37.2,29.74,WSW,242,0.0,0.0,49,0.00,CLR,,0.00,WeatherDisplay:10.37,2013-08-04 09:20:00,
2013-08-04 02:24:00,56.1,37.2,29.74,SW,223,0.0,0.0,49,0.00,CLR,,0.00,WeatherDisplay:10.37,2013-08-04 09:24:00,
2013-08-04 02:30:00,56.1,37.2,29.74,ENE,68,0.0,0.0,49,0.00,CLR,,0.00,WeatherDisplay:10.37,2013-08-04 09:30:00,
2013-08-04 02:35:00,56.1,37.2,29.74,NNW,345,0.0,0.0,49,0.00,CLR,,0.00,WeatherDisplay:10.37,2013-08-04 09:35:00,
2013-08-04 02:40:00,56.1,37.2,29.74,West,271,0.0,0.0,49,0.00,CLR,,0.00,WeatherDisplay:10.37,2013-08-04 09:40:00,
2013-08-04 02:45:00,56.1,37.2,29.74,WSW,251,0.0,0.0,49,0.00,CLR,,0.00,WeatherDisplay:10.37,2013-08-04 09:45:00,
2013-08-04 02:49:00,56.1,37.2,29.74,WNW,300,0.0,0.0,49,0.00,CLR,,0.00,WeatherDisplay:10.37,2013-08-04 09:49:00,
2013-08-04 02:54:00,56.1,37.2,29.74,WNW,300,0.0,0.0,49,0.00,CLR,,0.00,WeatherDisplay:10.37,2013-08-04 09:54:00,
2013-08-04 03:00:00,56.1,37.7,29.74,West,272,0.0,0.0,50,0.00,CLR,,0.00,WeatherDisplay:10.37,2013-08-04 10:00:00,
2013-08-04 03:05:00,56.1,37.7,29.74,WSW,255,0.0,0.0,50,0.00,CLR,,0.00,WeatherDisplay:10.37,2013-08-04 10:05:00,
2013-08-04 03:09:00,56.1,37.7,29.71,WNW,286,0.0,0.0,50,0.00,CLR,,0.00,WeatherDisplay:10.37,2013-08-04 10:09:00,
2013-08-04 03:15:00,56.1,37.7,29.71,NW,326,0.0,0.0,50,0.00,CLR,,0.00,WeatherDisplay:10.37,2013-08-04 10:15:00,
2013-08-04 03:20:00,56.1,37.7,29.71,WSW,247,0.0,0.0,50,0.00,CLR,,0.00,WeatherDisplay:10.37,2013-08-04 10:20:00,
2013-08-04 03:24:00,56.1,37.7,29.71,West,272,0.0,0.0,50,0.00,CLR,,0.00,WeatherDisplay:10.37,2013-08-04 10:24:00,
2013-08-04 03:30:00,56.1,37.7,29.71,NW,323,0.0,0.0,50,0.00,CLR,,0.00,WeatherDisplay:10.37,2013-08-04 10:30:00,
2013-08-04 03:35:00,56.1,37.7,29.71,SW,219,0.0,0.0,50,0.00,CLR,,0.00,WeatherDisplay:10.37,2013-08-04 10:35:00,
2013-08-04 03:40:00,56.1,37.7,29.71,SW,225,0.0,0.0,50,0.00,CLR,,0.00,WeatherDisplay:10.37,2013-08-04 10:40:00,
2013-08-04 03:45:00,56.1,37.7,29.71,SW,233,0.0,0.0,50,0.00,CLR,,0.00,WeatherDisplay:10.37,2013-08-04 10:45:00,
2013-08-04 03:49:00,55.9,37.6,29.71,WSW,245,0.0,0.0,50,0.00,CLR,,0.00,WeatherDisplay:10.37,2013-08-04 10:49:00,
2013-08-04 03:55:00,56.1,37.7,29.71,WNW,296,0.0,0.0,50,0.00,CLR,,0.00,WeatherDisplay:10.37,2013-08-04 10:55:00,
2013-08-04 04:00:00,55.9,37.6,29.71,West,268,0.0,0.0,50,0.00,CLR,,0.00,WeatherDisplay:10.37,2013-08-04 11:00:00,
2013-08-04 04:05:00,56.1,37.7,29.71,West,262,0.0,0.0,50,0.00,CLR,,0.00,WeatherDisplay:10.37,2013-08-04 11:05:00,
2013-08-04 04:10:00,56.0,37.6,29.74,WSW,249,0.0,0.0,50,0.00,CLR,,0.00,WeatherDisplay:10.37,2013-08-04 11:10:00,
2013-08-04 04:14:00,56.1,37.7,29.74,WSW,240,0.0,0.0,50,0.00,CLR,,0.00,WeatherDisplay:10.37,2013-08-04 11:14:00,
2013-08-04 04:20:00,56.1,37.7,29.74,SSE,147,0.0,0.0,50,0.00,CLR,,0.00,WeatherDisplay:10.37,2013-08-04 11:20:00,
2013-08-04 04:25:00,56.1,37.7,29.74,ESE,112,0.0,0.0,50,0.00,CLR,,0.00,WeatherDisplay:10.37,2013-08-04 11:25:00,
2013-08-04 04:30:00,56.1,37.7,29.74,SSE,165,0.0,0.0,50,0.00,CLR,,0.00,WeatherDisplay:10.37,2013-08-04 11:30:00,
2013-08-04 04:35:00,55.9,37.6,29.74,SW,235,0.0,0.0,50,0.00,CLR,,0.00,WeatherDisplay:10.37,2013-08-04 11:35:00,
2013-08-04 04:40:00,56.1,37.7,29.74,SW,230,0.0,0.0,50,0.00,CLR,,0.00,WeatherDisplay:10.37,2013-08-04 11:40:00,
2013-08-04 04:45:00,56.1,37.7,29.74,North,351,0.0,0.0,50,0.00,CLR,,0.00,WeatherDisplay:10.37,2013-08-04 11:45:00,
2013-08-04 04:50:00,56.1,38.2,29.74,NW,317,0.0,0.0,51,0.00,CLR,,0.00,WeatherDisplay:10.37,2013-08-04 11:50:00,
2013-08-04 05:00:00,56.1,38.2,29.74,SSE,158,0.0,0.0,51,0.00,CLR,,0.00,WeatherDisplay:10.37,2013-08-04 12:00:00,
2013-08-04 05:05:00,56.1,38.2,29.74,WSW,256,0.0,0.0,51,0.00,CLR,,0.00,WeatherDisplay:10.37,2013-08-04 12:05:00,
2013-08-04 05:10:00,56.1,38.2,29.74,WSW,239,0.0,0.0,51,0.00,CLR,,0.00,WeatherDisplay:10.37,2013-08-04 12:10:00,
2013-08-04 05:15:00,56.1,38.2,29.74,SSW,196,0.0,0.0,51,0.00,CLR,,0.00,WeatherDisplay:10.37,2013-08-04 12:15:00,
2013-08-04 05:20:00,56.1,38.2,29.74,South,188,0.0,0.0,51,0.00,CLR,,0.00,WeatherDisplay:10.37,2013-08-04 12:20:00,
2013-08-04 05:25:00,56.1,38.2,29.74,SSW,209,0.0,0.0,51,0.00,CLR,,0.00,WeatherDisplay:10.37,2013-08-04 12:25:00,
2013-08-04 05:30:00,56.1,38.2,29.74,SW,215,0.0,0.0,51,0.00,CLR,,0.00,WeatherDisplay:10.37,2013-08-04 12:30:00,
2013-08-04 05:35:00,56.1,38.2,29.74,South,175,0.0,0.0,51,0.00,CLR,,0.00,WeatherDisplay:10.37,2013-08-04 12:35:00,
2013-08-04 05:39:00,56.1,38.2,29.74,SSE,156,0.0,0.0,51,0.00,CLR,,0.00,WeatherDisplay:10.37,2013-08-04 12:39:00,
2013-08-04 05:50:00,56.1,38.2,29.74,WSW,243,0.0,0.0,51,0.00,CLR,,0.00,WeatherDisplay:10.37,2013-08-04 12:50:00,
2013-08-04 05:55:00,56.1,38.2,29.74,SW,224,0.0,0.0,51,0.00,CLR,,0.00,WeatherDisplay:10.37,2013-08-04 12:55:00,
2013-08-04 06:00:00,55.9,38.1,29.74,WSW,239,0.0,0.0,51,0.00,CLR,,0.00,WeatherDisplay:10.37,2013-08-04 13:00:00,
2013-08-04 06:05:00,55.9,38.1,29.74,WSW,240,0.0,0.0,51,0.00,CLR,,0.00,WeatherDisplay:10.37,2013-08-04 13:05:00,
2013-08-04 06:10:00,56.0,38.1,29.74,SW,218,0.0,0.0,51,0.00,CLR,,0.00,WeatherDisplay:10.37,2013-08-04 13:10:00,
2013-08-04 06:20:00,55.9,38.1,29.74,SSW,206,0.0,0.0,51,0.00,CLR,,0.00,WeatherDisplay:10.37,2013-08-04 13:20:00,
2013-08-04 06:30:00,55.9,38.1,29.74,SSW,204,0.0,0.0,51,0.00,CLR,,0.00,WeatherDisplay:10.37,2013-08-04 13:30:00,
2013-08-04 06:35:00,55.9,38.1,29.74,South,186,0.0,0.0,51,0.00,CLR,,0.00,WeatherDisplay:10.37,2013-08-04 13:35:00,
2013-08-04 06:40:00,55.9,38.1,29.74,SW,227,0.0,0.0,51,0.00,CLR,,0.00,WeatherDisplay:10.37,2013-08-04 13:40:00,
2013-08-04 06:45:00,55.9,38.1,29.74,South,177,0.0,0.0,51,0.00,CLR,,0.00,WeatherDisplay:10.37,2013-08-04 13:45:00,
2013-08-04 06:50:00,55.9,38.1,29.74,SSW,213,0.0,0.0,51,0.00,CLR,,0.00,WeatherDisplay:10.37,2013-08-04 13:50:00,
2013-08-04 06:55:00,55.9,38.1,29.74,SSW,209,0.0,0.0,51,0.00,CLR,,0.00,WeatherDisplay:10.37,2013-08-04 13:55:00,
2013-08-04 06:59:00,55.9,38.1,29.74,SW,219,0.0,0.0,51,0.00,CLR,,0.00,WeatherDisplay:10.37,2013-08-04 13:59:00,
2013-08-04 07:05:00,56.1,38.2,29.74,West,260,0.0,0.0,51,0.00,CLR,,0.00,WeatherDisplay:10.37,2013-08-04 14:05:00,
2013-08-04 07:10:00,55.9,38.1,29.74,SW,214,0.0,0.0,51,0.00,CLR,,0.00,WeatherDisplay:10.37,2013-08-04 14:10:00,
2013-08-04 07:15:00,55.9,38.1,29.74,South,171,0.0,0.0,51,0.00,CLR,,0.00,WeatherDisplay:10.37,2013-08-04 14:15:00,
2013-08-04 07:20:00,55.9,38.1,29.74,SSW,204,0.0,0.0,51,0.00,CLR,,0.00,WeatherDisplay:10.37,2013-08-04 14:20:00,
2013-08-04 07:25:00,55.9,38.1,29.74,WSW,246,0.0,0.0,51,0.00,CLR,,0.00,WeatherDisplay:10.37,2013-08-04 14:25:00,
2013-08-04 07:29:00,55.9,38.1,29.74,SSW,212,0.0,0.0,51,0.00,CLR,,0.00,WeatherDisplay:10.37,2013-08-04 14:29:00,
2013-08-04 07:35:00,55.9,38.1,29.74,SW,219,0.0,0.0,51,0.00,CLR,,0.00,WeatherDisplay:10.37,2013-08-04 14:35:00,
2013-08-04 07:40:00,56.0,38.1,29.77,NW,317,0.0,0.0,51,0.00,CLR,,0.00,WeatherDisplay:10.37,2013-08-04 14:40:00,
2013-08-04 07:45:00,55.9,38.1,29.77,WNW,294,0.0,0.0,51,0.00,CLR,,0.00,WeatherDisplay:10.37,2013-08-04 14:45:00,
2013-08-04 07:49:00,56.1,38.2,29.77,South,170,0.0,0.0,51,0.00,CLR,,0.00,WeatherDisplay:10.37,2013-08-04 14:49:00,
2013-08-04 07:55:00,56.1,38.2,29.74,SSE,165,0.0,0.0,51,0.00,CLR,,0.00,WeatherDisplay:10.37,2013-08-04 14:55:00,
2013-08-04 08:04:00,56.1,38.2,29.74,SW,217,0.0,0.0,51,0.00,CLR,,0.00,WeatherDisplay:10.37,2013-08-04 15:04:00,
2013-08-04 08:10:00,56.1,37.7,29.74,SSW,198,0.0,0.0,50,0.00,CLR,,0.00,WeatherDisplay:10.37,2013-08-04 15:10:00,
2013-08-04 08:15:00,56.1,38.2,29.74,South,180,0.0,0.0,51,0.00,CLR,,0.00,WeatherDisplay:10.37,2013-08-04 15:15:00,
2013-08-04 08:19:00,56.1,38.2,29.74,WSW,237,0.0,0.0,51,0.00,CLR,,0.00,WeatherDisplay:10.37,2013-08-04 15:19:00,
2013-08-04 08:30:00,56.3,38.4,29.74,SSW,207,0.0,0.0,51,0.00,CLR,,0.00,WeatherDisplay:10.37,2013-08-04 15:30:00,
2013-08-04 08:35:00,56.3,38.4,29.74,WSW,251,0.0,0.0,51,0.00,CLR,,0.00,WeatherDisplay:10.37,2013-08-04 15:35:00,
2013-08-04 08:39:00,56.3,38.4,29.74,SW,228,0.0,0.0,51,0.00,CLR,,0.00,WeatherDisplay:10.37,2013-08-04 15:39:00,
2013-08-04 08:50:00,56.5,38.6,29.74,South,191,0.0,0.0,51,0.00,CLR,,0.00,WeatherDisplay:10.37,2013-08-04 15:50:00,
2013-08-04 08:55:00,56.5,38.1,29.77,South,186,0.0,0.0,50,0.00,CLR,,0.00,WeatherDisplay:10.37,2013-08-04 15:55:00,
2013-08-04 09:00:00,56.7,38.2,29.77,South,171,0.0,0.0,50,0.00,CLR,,0.00,WeatherDisplay:10.37,2013-08-04 16:00:00,
2013-08-04 09:05:00,56.7,38.2,29.77,SSW,204,0.0,0.0,50,0.00,CLR,,0.00,WeatherDisplay:10.37,2013-08-04 16:05:00,
2013-08-04 09:15:00,56.7,38.2,29.77,SSE,158,0.0,0.0,50,0.00,CLR,,0.00,WeatherDisplay:10.37,2013-08-04 16:15:00,
2013-08-04 09:20:00,56.7,38.2,29.77,South,170,0.0,0.0,50,0.00,CLR,,0.00,WeatherDisplay:10.37,2013-08-04 16:20:00,
2013-08-04 09:24:00,56.8,38.4,29.77,South,189,0.0,0.0,50,0.00,CLR,,0.00,WeatherDisplay:10.37,2013-08-04 16:24:00,
2013-08-04 09:30:00,56.8,38.4,29.77,SSW,198,0.0,0.0,50,0.00,CLR,,0.00,WeatherDisplay:10.37,2013-08-04 16:30:00,
2013-08-04 09:40:00,56.8,38.4,29.77,SSW,198,0.0,0.0,50,0.00,CLR,,0.00,WeatherDisplay:10.37,2013-08-04 16:40:00,
2013-08-04 09:49:00,57.0,38.0,29.77,South,186,0.0,0.0,49,0.00,CLR,,0.00,WeatherDisplay:10.37,2013-08-04 16:49:00,
2013-08-04 10:00:00,57.2,38.2,29.77,SSE,168,0.0,0.0,49,0.00,CLR,,0.00,WeatherDisplay:10.37,2013-08-04 17:00:00,
2013-08-04 10:05:00,57.4,38.4,29.77,SSE,162,0.0,0.0,49,0.00,CLR,,0.00,WeatherDisplay:10.37,2013-08-04 17:05:00,
2013-08-04 10:10:00,57.4,38.4,29.77,SE,141,0.0,0.0,49,0.00,CLR,,0.00,WeatherDisplay:10.37,2013-08-04 17:10:00,
2013-08-04 10:15:00,57.4,38.4,29.77,West,278,0.0,0.0,49,0.00,CLR,,0.00,WeatherDisplay:10.37,2013-08-04 17:15:00,
2013-08-04 10:20:00,57.4,38.4,29.77,SW,221,0.0,0.0,49,0.00,CLR,,0.00,WeatherDisplay:10.37,2013-08-04 17:20:00,
2013-08-04 10:25:00,57.6,38.5,29.77,SW,219,0.0,0.0,49,0.00,CLR,,0.00,WeatherDisplay:10.37,2013-08-04 17:25:00,
2013-08-04 10:30:00,57.6,38.0,29.77,SW,214,0.0,0.0,48,0.00,CLR,,0.00,WeatherDisplay:10.37,2013-08-04 17:30:00,
2013-08-04 10:34:00,57.7,38.1,29.77,South,171,0.0,0.0,48,0.00,CLR,,0.00,WeatherDisplay:10.37,2013-08-04 17:34:00,
2013-08-04 10:44:00,57.7,38.2,29.77,SSE,168,0.0,0.0,48,0.00,CLR,,0.00,WeatherDisplay:10.37,2013-08-04 17:44:00,
2013-08-04 10:50:00,57.6,38.0,29.77,SSE,167,0.0,0.0,48,0.00,CLR,,0.00,WeatherDisplay:10.37,2013-08-04 17:50:00,
2013-08-04 10:55:00,57.7,38.2,29.77,West,277,0.0,0.0,48,0.00,CLR,,0.00,WeatherDisplay:10.37,2013-08-04 17:55:00,
2013-08-04 11:00:00,57.7,38.2,29.77,SW,228,0.0,0.0,48,0.00,CLR,,0.00,WeatherDisplay:10.37,2013-08-04 18:00:00,
2013-08-04 11:05:00,57.9,38.3,29.77,SW,225,0.0,0.0,48,0.00,CLR,,0.00,WeatherDisplay:10.37,2013-08-04 18:05:00,
2013-08-04 11:10:00,58.2,38.6,29.77,SW,223,1.0,5.0,48,0.00,CLR,,0.00,WeatherDisplay:10.37,2013-08-04 18:10:00,
2013-08-04 11:15:00,58.4,38.2,29.77,South,190,3.0,6.0,47,0.00,CLR,,0.00,WeatherDisplay:10.37,2013-08-04 18:15:00,
2013-08-04 11:20:00,58.6,38.5,29.77,SW,220,2.0,7.0,47,0.00,CLR,,0.00,WeatherDisplay:10.37,2013-08-04 18:20:00,
2013-08-04 11:25:00,59.0,38.2,29.77,WSW,249,1.0,8.0,46,0.00,CLR,,0.00,WeatherDisplay:10.37,2013-08-04 18:25:00,
2013-08-04 11:30:00,59.3,38.5,29.77,SW,217,2.0,5.0,46,0.00,CLR,,0.00,WeatherDisplay:10.37,2013-08-04 18:30:00,
2013-08-04 11:35:00,59.2,38.4,29.77,SSW,213,5.0,8.0,46,0.00,CLR,,0.00,WeatherDisplay:10.37,2013-08-04 18:35:00,
2013-08-04 11:40:00,59.5,38.1,29.77,SW,214,3.0,8.0,45,0.00,CLR,,0.00,WeatherDisplay:10.37,2013-08-04 18:40:00,
2013-08-04 11:45:00,59.9,38.5,29.77,South,172,2.0,7.0,45,0.00,CLR,,0.00,WeatherDisplay:10.37,2013-08-04 18:45:00,
2013-08-04 11:49:00,59.9,38.5,29.77,SSW,195,2.0,8.0,45,0.00,CLR,,0.00,WeatherDisplay:10.37,2013-08-04 18:49:00,
2013-08-04 11:54:00,59.7,37.8,29.77,WSW,257,3.0,8.0,44,0.00,CLR,,0.00,WeatherDisplay:10.37,2013-08-04 18:54:00,
2013-08-04 11:59:00,59.7,37.8,29.77,West,267,3.0,9.0,44,0.00,CLR,,0.00,WeatherDisplay:10.37,2013-08-04 18:59:00,
2013-08-04 12:05:00,60.1,38.1,29.77,SSW,192,2.0,7.0,44,0.00,CLR,,0.00,WeatherDisplay:10.37,2013-08-04 19:05:00,
2013-08-04 12:10:00,60.2,38.1,29.77,SSE,147,5.0,7.0,44,0.00,CLR,,0.00,WeatherDisplay:10.37,2013-08-04 19:10:00,
2013-08-04 12:15:00,60.2,38.2,29.77,ESE,103,3.0,10.0,44,0.00,CLR,,0.00,WeatherDisplay:10.37,2013-08-04 19:15:00,
2013-08-04 12:20:00,60.3,38.2,29.77,ESE,119,3.0,10.0,44,0.00,CLR,,0.00,WeatherDisplay:10.37,2013-08-04 19:20:00,
2013-08-04 12:25:00,60.3,37.7,29.77,SSW,202,1.0,10.0,43,0.00,CLR,,0.00,WeatherDisplay:10.37,2013-08-04 19:25:00,
2013-08-04 12:30:00,60.1,37.5,29.77,SSW,211,6.0,8.0,43,0.00,CLR,,0.00,WeatherDisplay:10.37,2013-08-04 19:30:00,
2013-08-04 12:35:00,60.1,36.9,29.77,SSE,157,3.0,8.0,42,0.00,CLR,,0.00,WeatherDisplay:10.37,2013-08-04 19:35:00,
2013-08-04 12:44:00,60.6,37.4,29.77,SSW,207,5.0,6.0,42,0.00,CLR,,0.00,WeatherDisplay:10.37,2013-08-04 19:44:00,
2013-08-04 12:49:00,61.2,37.9,29.77,SE,132,5.0,8.0,42,0.00,CLR,,0.00,WeatherDisplay:10.37,2013-08-04 19:49:00,
2013-08-04 12:55:00,61.2,37.3,29.77,South,169,5.0,8.0,41,0.00,CLR,,0.00,WeatherDisplay:10.37,2013-08-04 19:55:00,
2013-08-04 13:00:00,61.5,37.6,29.77,SSE,158,3.0,8.0,41,0.00,CLR,,0.00,WeatherDisplay:10.37,2013-08-04 20:00:00,
2013-08-04 13:05:00,61.9,37.3,29.77,South,186,5.0,8.0,40,0.00,CLR,,0.00,WeatherDisplay:10.37,2013-08-04 20:05:00,
2013-08-04 13:09:00,62.0,37.4,29.77,SW,221,5.0,7.0,40,0.00,CLR,,0.00,WeatherDisplay:10.37,2013-08-04 20:09:00,
2013-08-04 13:20:00,61.7,36.5,29.77,South,174,5.0,8.0,39,0.00,CLR,,0.00,WeatherDisplay:10.37,2013-08-04 20:20:00,
2013-08-04 13:25:00,61.7,36.5,29.77,South,175,3.0,6.0,39,0.00,CLR,,0.00,WeatherDisplay:10.37,2013-08-04 20:25:00,
2013-08-04 13:30:00,61.8,36.6,29.77,SE,130,3.0,8.0,39,0.00,CLR,,0.00,WeatherDisplay:10.37,2013-08-04 20:30:00,
2013-08-04 13:34:00,61.9,36.6,29.77,North,1,5.0,8.0,39,0.00,CLR,,0.00,WeatherDisplay:10.37,2013-08-04 20:34:00,
2013-08-04 13:40:00,61.9,36.6,29.77,SSW,206,5.0,8.0,39,0.00,CLR,,0.00,WeatherDisplay:10.37,2013-08-04 20:40:00,
2013-08-04 13:45:00,62.2,36.9,29.77,South,174,3.0,9.0,39,0.00,CLR,,0.00,WeatherDisplay:10.37,2013-08-04 20:45:00,
2013-08-04 13:50:00,62.3,37.0,29.77,WNW,283,3.0,12.0,39,0.00,CLR,,0.00,WeatherDisplay:10.37,2013-08-04 20:50:00,
2013-08-04 13:55:00,62.4,36.5,29.77,West,279,3.0,6.0,38,0.00,CLR,,0.00,WeatherDisplay:10.37,2013-08-04 20:55:00,
2013-08-04 14:00:00,62.6,36.6,29.77,SW,234,3.0,8.0,38,0.00,CLR,,0.00,WeatherDisplay:10.37,2013-08-04 21:00:00,
2013-08-04 14:05:00,62.6,36.6,29.77,SSW,201,5.0,8.0,38,0.00,CLR,,0.00,WeatherDisplay:10.37,2013-08-04 21:05:00,
2013-08-04 14:10:00,62.6,36.6,29.77,West,267,6.0,10.0,38,0.00,CLR,,0.00,WeatherDisplay:10.37,2013-08-04 21:10:00,
2013-08-04 14:14:00,62.3,36.4,29.77,West,262,7.0,14.0,38,0.00,CLR,,0.00,WeatherDisplay:10.37,2013-08-04 21:14:00,
2013-08-04 14:19:00,62.1,35.5,29.77,West,272,6.0,13.0,37,0.00,CLR,,0.00,WeatherDisplay:10.37,2013-08-04 21:19:00,
2013-08-04 14:25:00,62.2,36.3,29.77,WNW,296,7.0,13.0,38,0.00,CLR,,0.00,WeatherDisplay:10.37,2013-08-04 21:25:00,
2013-08-04 14:30:00,62.2,36.3,29.77,WSW,255,7.0,12.0,38,0.00,CLR,,0.00,WeatherDisplay:10.37,2013-08-04 21:30:00,
2013-08-04 14:34:00,61.9,35.3,29.77,WSW,250,8.0,12.0,37,0.00,CLR,,0.00,WeatherDisplay:10.37,2013-08-04 21:34:00,
2013-08-04 14:40:00,61.9,36.0,29.77,SSW,213,6.0,13.0,38,0.00,CLR,,0.00,WeatherDisplay:10.37,2013-08-04 21:40:00,
2013-08-04 14:45:00,61.9,35.3,29.77,SW,222,6.0,13.0,37,0.00,CLR,,0.00,WeatherDisplay:10.37,2013-08-04 21:45:00,
2013-08-04 14:50:00,61.9,35.3,29.77,SW,219,6.0,10.0,37,0.00,CLR,,0.00,WeatherDisplay:10.37,2013-08-04 21:50:00,
2013-08-04 15:00:00,61.5,35.0,29.74,WSW,251,5.0,9.0,37,0.00,CLR,,0.00,WeatherDisplay:10.37,2013-08-04 22:00:00,
2013-08-04 15:05:00,61.5,35.7,29.74,West,259,6.0,13.0,38,0.00,CLR,,0.00,WeatherDisplay:10.37,2013-08-04 22:05:00,
2013-08-04 15:09:00,61.5,35.7,29.74,West,261,7.0,12.0,38,0.00,CLR,,0.00,WeatherDisplay:10.37,2013-08-04 22:09:00,
2013-08-04 15:15:00,61.3,35.5,29.74,WSW,242,7.0,15.0,38,0.00,CLR,,0.00,WeatherDisplay:10.37,2013-08-04 22:15:00,
2013-08-04 15:20:00,61.3,35.5,29.74,WSW,245,6.0,13.0,38,0.00,CLR,,0.00,WeatherDisplay:10.37,2013-08-04 22:20:00,
2013-08-04 15:25:00,61.2,35.3,29.74,West,259,6.0,10.0,38,0.00,CLR,,0.00,WeatherDisplay:10.37,2013-08-04 22:25:00,
2013-08-04 15:30:00,61.2,35.3,29.74,WSW,238,6.0,15.0,38,0.00,CLR,,0.00,WeatherDisplay:10.37,2013-08-04 22:30:00,
2013-08-04 15:35:00,61.2,35.3,29.74,SW,230,6.0,9.0,38,0.00,CLR,,0.00,WeatherDisplay:10.37,2013-08-04 22:35:00,
2013-08-04 15:40:00,61.0,35.2,29.74,WSW,240,7.0,13.0,38,0.00,CLR,,0.00,WeatherDisplay:10.37,2013-08-04 22:40:00,
2013-08-04 15:45:00,61.0,35.2,29.74,WSW,255,7.0,13.0,38,0.00,CLR,,0.00,WeatherDisplay:10.37,2013-08-04 22:45:00,
2013-08-04 15:50:00,60.6,34.9,29.74,West,264,7.0,13.0,38,0.00,CLR,,0.00,WeatherDisplay:10.37,2013-08-04 22:50:00,
2013-08-04 16:00:00,60.4,34.7,29.71,WSW,258,7.0,10.0,38,0.00,CLR,,0.00,WeatherDisplay:10.37,2013-08-04 23:00:00,
2013-08-04 16:05:00,60.4,35.3,29.71,WSW,246,6.0,10.0,39,0.00,CLR,,0.00,WeatherDisplay:10.37,2013-08-04 23:05:00,
2013-08-04 16:10:00,60.5,35.4,29.71,WSW,257,5.0,10.0,39,0.00,CLR,,0.00,WeatherDisplay:10.37,2013-08-04 23:10:00,
2013-08-04 16:15:00,60.3,35.3,29.71,WSW,244,6.0,13.0,39,0.00,CLR,,0.00,WeatherDisplay:10.37,2013-08-04 23:15:00,
2013-08-04 16:20:00,60.1,35.1,29.71,WSW,253,7.0,15.0,39,0.00,CLR,,0.00,WeatherDisplay:10.37,2013-08-04 23:20:00,
2013-08-04 16:25:00,60.2,35.1,29.74,WSW,248,6.0,10.0,39,0.00,CLR,,0.00,WeatherDisplay:10.37,2013-08-04 23:25:00,
2013-08-04 16:30:00,60.3,35.2,29.74,SW,231,6.0,10.0,39,0.00,CLR,,0.00,WeatherDisplay:10.37,2013-08-04 23:30:00,
2013-08-04 16:35:00,60.3,35.2,29.74,WSW,247,7.0,13.0,39,0.00,CLR,,0.00,WeatherDisplay:10.37,2013-08-04 23:35:00,
2013-08-04 16:40:00,60.1,35.0,29.74,SW,232,6.0,12.0,39,0.00,CLR,,0.00,WeatherDisplay:10.37,2013-08-04 23:40:00,
2013-08-04 16:44:00,59.9,34.9,29.74,SW,214,6.0,10.0,39,0.00,CLR,,0.00,WeatherDisplay:10.37,2013-08-04 23:44:00,
2013-08-04 16:50:00,59.7,34.7,29.74,SSW,203,7.0,14.0,39,0.00,CLR,,0.00,WeatherDisplay:10.37,2013-08-04 23:50:00,
2013-08-04 16:55:00,59.5,35.2,29.71,SW,233,7.0,14.0,40,0.00,CLR,,0.00,WeatherDisplay:10.37,2013-08-04 23:55:00,
2013-08-04 17:00:00,59.5,35.2,29.71,SW,228,5.0,22.0,40,0.00,CLR,,0.00,WeatherDisplay:10.37,2013-08-05 00:00:00,
2013-08-04 17:04:00,59.5,35.2,29.71,SW,233,5.0,10.0,40,0.00,CLR,,0.00,WeatherDisplay:10.37,2013-08-05 00:04:00,
2013-08-04 17:10:00,59.4,35.0,29.71,SW,220,6.0,10.0,40,0.00,CLR,,0.00,WeatherDisplay:10.37,2013-08-05 00:10:00,
2013-08-04 17:14:00,59.4,35.0,29.71,SW,232,6.0,12.0,40,0.00,CLR,,0.00,WeatherDisplay:10.37,2013-08-05 00:14:00,
2013-08-04 17:20:00,59.4,35.0,29.71,SW,233,7.0,10.0,40,0.00,CLR,,0.00,WeatherDisplay:10.37,2013-08-05 00:20:00,
2013-08-04 17:25:00,59.4,35.0,29.71,SW,223,6.0,10.0,40,0.00,CLR,,0.00,WeatherDisplay:10.37,2013-08-05 00:25:00,
2013-08-04 17:30:00,59.4,35.0,29.71,South,169,5.0,8.0,40,0.00,CLR,,0.00,WeatherDisplay:10.37,2013-08-05 00:30:00,
2013-08-04 17:40:00,59.2,34.9,29.71,SW,235,3.0,14.0,40,0.00,CLR,,0.00,WeatherDisplay:10.37,2013-08-05 00:40:00,
2013-08-04 17:45:00,59.2,35.5,29.71,WSW,248,6.0,14.0,41,0.00,CLR,,0.00,WeatherDisplay:10.37,2013-08-05 00:45:00,
2013-08-04 17:50:00,59.2,35.5,29.71,SW,233,5.0,8.0,41,0.00,CLR,,0.00,WeatherDisplay:10.37,2013-08-05 00:50:00,
2013-08-04 17:55:00,59.2,35.5,29.71,SSW,199,3.0,9.0,41,0.00,CLR,,0.00,WeatherDisplay:10.37,2013-08-05 00:55:00,
2013-08-04 18:00:00,58.9,35.3,29.71,WSW,252,7.0,15.0,41,0.00,CLR,,0.00,WeatherDisplay:10.37,2013-08-05 01:00:00,
2013-08-04 18:05:00,58.8,35.2,29.71,SW,225,3.0,9.0,41,0.00,CLR,,0.00,WeatherDisplay:10.37,2013-08-05 01:05:00,
2013-08-04 18:10:00,59.0,35.9,29.74,East,89,6.0,13.0,42,0.00,CLR,,0.00,WeatherDisplay:10.37,2013-08-05 01:10:00,
2013-08-04 18:14:00,59.0,35.9,29.74,East,82,1.0,7.0,42,0.00,CLR,,0.00,WeatherDisplay:10.37,2013-08-05 01:14:00,
2013-08-04 18:19:00,59.0,35.9,29.74,SE,131,5.0,10.0,42,0.00,CLR,,0.00,WeatherDisplay:10.37,2013-08-05 01:19:00,
2013-08-04 18:25:00,58.8,35.8,29.74,SW,235,2.0,7.0,42,0.00,CLR,,0.00,WeatherDisplay:10.37,2013-08-05 01:25:00,
2013-08-04 18:30:00,58.8,35.8,29.74,ESE,119,5.0,8.0,42,0.00,CLR,,0.00,WeatherDisplay:10.37,2013-08-05 01:30:00,
2013-08-04 18:35:00,59.0,36.5,29.74,SE,132,5.0,6.0,43,0.00,CLR,,0.00,WeatherDisplay:10.37,2013-08-05 01:35:00,
2013-08-04 18:40:00,59.0,36.5,29.71,SE,142,5.0,9.0,43,0.00,CLR,,0.00,WeatherDisplay:10.37,2013-08-05 01:40:00,
2013-08-04 18:45:00,58.8,36.4,29.71,ESE,111,3.0,8.0,43,0.00,CLR,,0.00,WeatherDisplay:10.37,2013-08-05 01:45:00,
2013-08-04 18:50:00,58.8,36.4,29.71,SE,135,2.0,5.0,43,0.00,CLR,,0.00,WeatherDisplay:10.37,2013-08-05 01:50:00,
2013-08-04 18:55:00,58.8,36.4,29.71,ENE,69,0.0,5.0,43,0.00,CLR,,0.00,WeatherDisplay:10.37,2013-08-05 01:55:00,
2013-08-04 19:00:00,59.0,37.1,29.71,ENE,61,3.0,9.0,44,0.00,CLR,,0.00,WeatherDisplay:10.37,2013-08-05 02:00:00,
2013-08-04 19:05:00,58.9,37.0,29.71,NE,43,0.0,0.0,44,0.00,CLR,,0.00,WeatherDisplay:10.37,2013-08-05 02:05:00,
2013-08-04 19:10:00,58.8,36.9,29.74,SW,230,0.0,0.0,44,0.00,CLR,,0.00,WeatherDisplay:10.37,2013-08-05 02:10:00,
2013-08-04 19:14:00,58.8,36.9,29.74,NE,51,0.0,0.0,44,0.00,CLR,,0.00,WeatherDisplay:10.37,2013-08-05 02:14:00,
2013-08-04 19:20:00,58.8,36.9,29.74,NNE,17,0.0,0.0,44,0.00,CLR,,0.00,WeatherDisplay:10.37,2013-08-05 02:20:00,
2013-08-04 19:25:00,58.8,36.9,29.74,ENE,66,0.0,0.0,44,0.00,CLR,,0.00,WeatherDisplay:10.37,2013-08-05 02:25:00,
2013-08-04 19:29:00,58.6,37.3,29.74,East,87,0.0,0.0,45,0.00,CLR,,0.00,WeatherDisplay:10.37,2013-08-05 02:29:00,
2013-08-04 19:35:00,58.6,37.3,29.74,South,182,0.0,0.0,45,0.00,CLR,,0.00,WeatherDisplay:10.37,2013-08-05 02:35:00,
2013-08-04 19:39:00,58.6,37.3,29.74,SSW,213,0.0,0.0,45,0.00,CLR,,0.00,WeatherDisplay:10.37,2013-08-05 02:39:00,
2013-08-04 19:45:00,58.6,37.3,29.74,WSW,256,0.0,0.0,45,0.00,CLR,,0.00,WeatherDisplay:10.37,2013-08-05 02:45:00,
2013-08-04 19:49:00,58.5,37.2,29.74,WNW,292,0.0,0.0,45,0.00,CLR,,0.00,WeatherDisplay:10.37,2013-08-05 02:49:00,
2013-08-04 19:55:00,58.6,37.3,29.74,ENE,60,0.0,0.0,45,0.00,CLR,,0.00,WeatherDisplay:10.37,2013-08-05 02:55:00,
2013-08-04 20:00:00,58.5,37.2,29.74,NNE,14,0.0,0.0,45,0.00,CLR,,0.00,WeatherDisplay:10.37,2013-08-05 03:00:00,
2013-08-04 20:04:00,58.5,37.2,29.74,WSW,245,0.0,0.0,45,0.00,CLR,,0.00,WeatherDisplay:10.37,2013-08-05 03:04:00,
2013-08-04 20:09:00,58.5,37.7,29.74,NE,54,0.0,0.0,46,0.00,CLR,,0.00,WeatherDisplay:10.37,2013-08-05 03:09:00,
2013-08-04 20:15:00,58.5,37.7,29.74,NNW,330,0.0,0.0,46,0.00,CLR,,0.00,WeatherDisplay:10.37,2013-08-05 03:15:00,
2013-08-04 20:20:00,58.3,37.6,29.74,West,266,0.0,0.0,46,0.00,CLR,,0.00,WeatherDisplay:10.37,2013-08-05 03:20:00,
2013-08-04 20:25:00,58.1,37.4,29.74,WNW,284,0.0,0.0,46,0.00,CLR,,0.00,WeatherDisplay:10.37,2013-08-05 03:25:00,
2013-08-04 20:29:00,58.3,37.6,29.74,NNW,327,0.0,0.0,46,0.00,CLR,,0.00,WeatherDisplay:10.37,2013-08-05 03:29:00,
2013-08-04 20:35:00,58.3,37.6,29.74,NE,44,0.0,0.0,46,0.00,CLR,,0.00,WeatherDisplay:10.37,2013-08-05 03:35:00,
2013-08-04 20:39:00,58.1,37.4,29.74,SW,227,0.0,0.0,46,0.00,CLR,,0.00,WeatherDisplay:10.37,2013-08-05 03:39:00,
2013-08-04 20:45:00,58.1,37.4,29.74,WSW,243,0.0,0.0,46,0.00,CLR,,0.00,WeatherDisplay:10.37,2013-08-05 03:45:00,
2013-08-04 20:50:00,58.1,37.4,29.74,WSW,250,0.0,0.0,46,0.00,CLR,,0.00,WeatherDisplay:10.37,2013-08-05 03:50:00,
2013-08-04 20:55:00,58.1,38.0,29.74,WNW,294,0.0,0.0,47,0.00,CLR,,0.00,WeatherDisplay:10.37,2013-08-05 03:55:00,
2013-08-04 21:00:00,58.1,38.0,29.74,West,277,0.0,0.0,47,0.00,CLR,,0.00,WeatherDisplay:10.37,2013-08-05 04:00:00,
2013-08-04 21:05:00,58.1,38.0,29.74,WNW,291,0.0,0.0,47,0.00,CLR,,0.00,WeatherDisplay:10.37,2013-08-05 04:05:00,
2013-08-04 21:10:00,58.1,38.0,29.74,ENE,59,0.0,0.0,47,0.00,CLR,,0.00,WeatherDisplay:10.37,2013-08-05 04:10:00,
2013-08-04 21:15:00,58.1,38.0,29.74,ESE,112,0.0,0.0,47,0.00,CLR,,0.00,WeatherDisplay:10.37,2013-08-05 04:15:00,
2013-08-04 21:20:00,58.1,38.0,29.74,WNW,298,0.0,0.0,47,0.00,CLR,,0.00,WeatherDisplay:10.37,2013-08-05 04:20:00,
2013-08-04 21:24:00,58.1,38.0,29.74,WNW,298,0.0,0.0,47,0.00,CLR,,0.00,WeatherDisplay:10.37,2013-08-05 04:24:00,
2013-08-04 21:30:00,58.1,38.0,29.74,WSW,243,0.0,0.0,47,0.00,CLR,,0.00,WeatherDisplay:10.37,2013-08-05 04:30:00,
2013-08-04 21:35:00,58.1,37.9,29.74,SSW,202,0.0,0.0,47,0.00,CLR,,0.00,WeatherDisplay:10.37,2013-08-05 04:35:00,
2013-08-04 21:40:00,58.1,38.0,29.77,SW,229,0.0,0.0,47,0.00,CLR,,0.00,WeatherDisplay:10.37,2013-08-05 04:40:00,
2013-08-04 21:49:00,58.1,37.9,29.77,North,8,0.0,0.0,47,0.00,CLR,,0.00,WeatherDisplay:10.37,2013-08-05 04:49:00,
2013-08-04 21:55:00,58.1,38.5,29.77,East,91,0.0,0.0,48,0.00,CLR,,0.00,WeatherDisplay:10.37,2013-08-05 04:55:00,
2013-08-04 22:00:00,57.9,38.3,29.77,West,268,0.0,0.0,48,0.00,CLR,,0.00,WeatherDisplay:10.37,2013-08-05 05:00:00,
2013-08-04 22:05:00,58.0,38.4,29.77,WSW,252,0.0,0.0,48,0.00,CLR,,0.00,WeatherDisplay:10.37,2013-08-05 05:05:00,
2013-08-04 22:09:00,57.9,38.3,29.77,WNW,283,0.0,0.0,48,0.00,CLR,,0.00,WeatherDisplay:10.37,2013-08-05 05:09:00,
2013-08-04 22:15:00,57.9,38.3,29.77,West,281,0.0,0.0,48,0.00,CLR,,0.00,WeatherDisplay:10.37,2013-08-05 05:15:00,
2013-08-04 22:20:00,57.9,38.3,29.77,WSW,253,0.0,0.0,48,0.00,CLR,,0.00,WeatherDisplay:10.37,2013-08-05 05:20:00,
2013-08-04 22:25:00,57.9,38.3,29.77,WSW,258,0.0,0.0,48,0.00,CLR,,0.00,WeatherDisplay:10.37,2013-08-05 05:25:00,
2013-08-04 22:30:00,57.9,38.3,29.77,WSW,245,0.0,0.0,48,0.00,CLR,,0.00,WeatherDisplay:10.37,2013-08-05 05:30:00,
2013-08-04 22:34:00,57.9,38.9,29.77,WSW,252,0.0,0.0,49,0.00,CLR,,0.00,WeatherDisplay:10.37,2013-08-05 05:34:00,
2013-08-04 22:40:00,57.9,38.9,29.77,WSW,238,0.0,0.0,49,0.00,CLR,,0.00,WeatherDisplay:10.37,2013-08-05 05:40:00,
2013-08-04 22:45:00,57.7,38.7,29.77,SSW,201,0.0,0.0,49,0.00,CLR,,0.00,WeatherDisplay:10.37,2013-08-05 05:45:00,
2013-08-04 22:50:00,57.9,38.9,29.77,South,190,0.0,0.0,49,0.00,CLR,,0.00,WeatherDisplay:10.37,2013-08-05 05:50:00,
2013-08-04 22:55:00,57.7,38.7,29.77,WSW,251,0.0,0.0,49,0.00,CLR,,0.00,WeatherDisplay:10.37,2013-08-05 05:55:00,
2013-08-04 23:00:00,57.7,38.7,29.77,WSW,255,0.0,0.0,49,0.00,CLR,,0.00,WeatherDisplay:10.37,2013-08-05 06:00:00,
2013-08-04 23:05:00,57.7,38.7,29.77,WSW,249,0.0,0.0,49,0.00,CLR,,0.00,WeatherDisplay:10.37,2013-08-05 06:05:00,
2013-08-04 23:10:00,57.7,38.7,29.77,West,263,0.0,0.0,49,0.00,CLR,,0.00,WeatherDisplay:10.37,2013-08-05 06:10:00,
2013-08-04 23:14:00,57.7,39.2,29.77,NW,308,0.0,0.0,50,0.00,CLR,,0.00,WeatherDisplay:10.37,2013-08-05 06:14:00,
2013-08-04 23:20:00,57.7,39.2,29.77,NW,307,0.0,0.0,50,0.00,CLR,,0.00,WeatherDisplay:10.37,2013-08-05 06:20:00,
2013-08-04 23:25:00,57.7,39.2,29.77,WNW,290,0.0,0.0,50,0.00,CLR,,0.00,WeatherDisplay:10.37,2013-08-05 06:25:00,
2013-08-04 23:30:00,57.7,39.2,29.77,WSW,249,0.0,0.0,50,0.00,CLR,,0.00,WeatherDisplay:10.37,2013-08-05 06:30:00,
2013-08-04 23:35:00,57.7,39.2,29.77,South,182,0.0,0.0,50,0.00,CLR,,0.00,WeatherDisplay:10.37,2013-08-05 06:35:00,
2013-08-04 23:39:00,57.7,39.2,29.77,SE,143,0.0,0.0,50,0.00,CLR,,0.00,WeatherDisplay:10.37,2013-08-05 06:39:00,
2013-08-04 23:45:00,57.6,39.0,29.77,West,274,0.0,0.0,50,0.00,CLR,,0.00,WeatherDisplay:10.37,2013-08-05 06:45:00,
2013-08-04 23:50:00,57.6,39.0,29.77,NNW,334,0.0,0.0,50,0.00,CLR,,0.00,WeatherDisplay:10.37,2013-08-05 06:50:00,
2013-08-04 23:55:00,57.6,39.0,29.74,ENE,61,0.0,0.0,50,0.00,CLR,,0.00,WeatherDisplay:10.37,2013-08-05 06:55:00,
2013-08-04 23:59:00,57.6,39.0,29.74,NE,54,0.0,0.0,50,0.00,CLR,,0.00,WeatherDisplay:10.37,2013-08-05 06:59:00,